Flag for Canada Weather past 2 weeks in Richmond, British Columbia, Canada

Now
50 °F

Light rain. Cloudy.


Feels Like: 48 °F
Forecast: 48 / 54 °F
Wind: 5 mph from Northeast

Location: Vancouver International Air-Port

Current Time: Oct 23, 2014 at 10:33:03 AM

Latest Report: Oct 23, 2014 at 10:00 AM


Visibility: 15 mi

Pressure: 29.69 "Hg

Humidity: 94%

Dew point: 48 °F

Location of RichmondLocation

Historic Weather in Richmond — Graph

°F

Richmond temperature yesterday

Maximum temperature yesterday: 59 °F (at 12:00 AM)
Minimum temperature yesterday: 52 °F (at 10:00 PM)
Average temperature yesterday: 55 °F

Past Weeks' High & Low Weather Summary

 TemperatureHumidityPressure
High68 °F (Oct 19, 12:00 PM)100% (Oct 8, 8:00 PM)30.22 "Hg (Oct 8, 8:00 PM)
Low48 °F (Oct 12, 6:00 AM)63% (Oct 16, 4:00 PM)29.48 "Hg (Oct 22, 8:00 PM)
Average56 °F89%29.83 "Hg
* Reported Oct 8 9:00 AM — Oct 23 9:00 AM, Richmond, Weather by CustomWeather, © 2014

Note: Actual official high and low records may vary slightly from our data, if they occured in-between our weather recording intervals... More about our weather records

Advertising

Richmond weather history for previous 24 hours

 ConditionsComfort  
Time TempWeatherWind HumidityBarometerVisibility
9:00 AM
Oct 23
50 °FHeavy rain. Mostly cloudy.2 mph94%29.68 "Hg12 mi
8:00 AM50 °FStrong thunderstorms. Overcast.3 mph94%29.69 "Hg8 mi
7:47 AM50 °FThunderstorms. Overcast.2 mph94%29.69 "Hg8 mi
7:00 AM50 °FLight rain. Mostly cloudy.10 mph94%29.68 "Hg12 mi
6:00 AM50 °FLight rain. Mostly cloudy.10 mph94%29.67 "Hg15 mi
5:00 AM50 °FMostly cloudy.8 mph94%29.67 "Hg15 mi
4:00 AM50 °FOvercast.8 mph88%29.67 "Hg15 mi
3:00 AM50 °FPassing clouds.7 mph88%29.68 "Hg15 mi
2:00 AM50 °FPartly cloudy.8 mph88%29.65 "Hg15 mi
1:00 AM54 °FOvercast.9 mph77%29.62 "Hg15 mi
12:00 AM52 °FPartly cloudy.9 mph88%29.61 "Hg15 mi
11:00 PM
Oct 22
54 °FOvercast.2 mph94%29.56 "Hg12 mi
10:00 PM52 °FMostly cloudy.7 mph100%29.52 "Hg10 mi
9:00 PM54 °FLight rain. Mostly cloudy.12 mph94%29.49 "Hg10 mi
8:00 PM54 °FLight rain. Mostly cloudy.14 mph94%29.48 "Hg8 mi
7:48 PM54 °FLight rain. Fog.10 mph94%29.48 "Hg6 mi
7:00 PM54 °FRain. Mostly cloudy.12 mph94%29.52 "Hg8 mi
6:00 PM55 °FLight rain. Mostly cloudy.17 mph94%29.54 "Hg12 mi
5:50 PM55 °FLight rain. Mostly cloudy.15 mph94%29.54 "Hg15 mi
5:00 PM57 °FLight rain. Mostly cloudy.12 mph88%29.56 "Hg15 mi
4:00 PM57 °FMore clouds than sun.14 mph88%29.60 "Hg15 mi
3:48 PM57 °FCloudy.13 mph88%29.60 "Hg15 mi
3:00 PM57 °FCloudy.10 mph88%29.63 "Hg15 mi
2:00 PM55 °FCloudy.12 mph94%29.65 "Hg15 mi
1:00 PM57 °FPartly sunny.10 mph88%29.66 "Hg15 mi
12:00 PM57 °FPartly sunny.7 mph88%29.67 "Hg15 mi
11:00 AM55 °FBroken clouds.12 mph94%29.67 "Hg15 mi
10:00 AM55 °FPartly sunny.15 mph94%29.66 "Hg15 mi
Weather by CustomWeather, © 2014

See weather overviewHow to use our weather pages